{"data":{"norad_id":48431,"epoch":"2026-09-19T16:16:59.109888Z","epoch_age_seconds":92867,"freshness":"FRESH","line1":"1 48431U 21040D   26262.67846192  .00000872  00000+0  39864-4 0  9998","line2":"2 48431  53.1618 330.0142 0001209  88.3116 271.8024 15.31705371296754","mean_motion":15.31705371,"eccentricity":0.0001209,"inclination_deg":53.1618,"raan_deg":330.0142,"arg_perigee_deg":88.3116,"mean_anomaly_deg":271.8024,"bstar":3.9864e-5,"rev_number":29675,"period_min":94.012858299235,"perigee_km":469.89595730788,"apogee_km":471.55201189395,"semimajor_km":6848.8609846009,"source":"CELESTRAK","updated_at":"2026-09-20T09:00:39.123134Z"}}